This is the latest recevied weather packets stored in our database for station/object OH6GKW. If no packets are shown the sender has not sent any weather packets the latest 10 day(s).
| Time | Temp. | Humidity | Pressure | Rain* | Wind** | Luminosity | Snow |
|---|---|---|---|---|---|---|---|
| 1788528828 | 16.11° C | 78% | 994.9 hPa | 0 mm | - | 134 W/m² | - |
| 1788528518 | 16.67° C | 77% | 994.9 hPa | 0 mm | - | 213 W/m² | - |
| 1788528228 | 16.11° C | 78% | 994.9 hPa | 0 mm | - | 516 W/m² | - |
| 1788527923 | 16.11° C | 80% | 994.9 hPa | 0 mm | - | 523 W/m² | - |
| 1788527617 | 16.11° C | 79% | 994.9 hPa | 0 mm | - | 533 W/m² | - |
| 1788527310 | 15.56° C | 82% | 994.9 hPa | 0 mm | - | 535 W/m² | - |
| 1788527026 | 15.56° C | 81% | 994.9 hPa | 0 mm | - | 429 W/m² | - |
| 1788526714 | 15.56° C | 81% | 994.9 hPa | 0 mm | - | 271 W/m² | - |
| 1788526437 | 15° C | 84% | 994.9 hPa | 0 mm | - | 505 W/m² | - |
| 1788526131 | 15° C | 86% | 994.9 hPa | 0 mm | - | 514 W/m² | - |
| 1788525824 | 14.44° C | 87% | 994.9 hPa | 0 mm | - | 229 W/m² | - |
| 1788525515 | 14.44° C | 87% | 994.9 hPa | 0 mm | - | 194 W/m² | - |
| 1788525225 | 14.44° C | 88% | 994.9 hPa | 0 mm | - | 172 W/m² | - |
| 1788524916 | 14.44° C | 88% | 995.1 hPa | 0 mm | - | 148 W/m² | - |
| 1788524608 | 15° C | 88% | 995.1 hPa | 0 mm | - | 141 W/m² | - |
| 1788524323 | 15° C | 88% | 995.1 hPa | 0 mm | - | 225 W/m² | - |
| 1788524016 | 15° C | 87% | 995.1 hPa | 0 mm | - | 187 W/m² | - |
| 1788523711 | 15° C | 86% | 995.1 hPa | 0 mm | - | 139 W/m² | - |
| 1788523417 | 15° C | 85% | 995.1 hPa | 0 mm | - | 151 W/m² | - |
| 1788523127 | 15° C | 84% | 995 hPa | 0 mm | - | 135 W/m² | - |
| 1788522823 | 15° C | 83% | 995 hPa | 0 mm | - | 132 W/m² | - |
| 1788522519 | 15° C | 83% | 995 hPa | 0 mm | - | 121 W/m² | - |
| 1788522228 | 15° C | 84% | 995.2 hPa | 0 mm | - | 626 W/m² | - |
| 1788521919 | 15° C | 83% | 995.2 hPa | 0 mm | - | 167 W/m² | - |
| 1788521613 | 15° C | 81% | 995.2 hPa | 0 mm | - | 187 W/m² | - |
* Rain since midnight (hover to see other rain measurements)
** Current wind speed in m/s (hover to see current wind gust speed)